DECAYED

STARLINK-1416, 45692 (Decayed)

Orbit data source: Space-Track

STARLINK-1416, 45692 was a payload satellite owned by SpaceX/Seattle (US) in LEO that was launched on Thu, 04 Jun 2020 UTC via an FALCON 9 launch vehicle from the Air Force Eastern Test Range (AFETR). Payloads include a variety of satellites, spacecraft, and rockets equipped with specific instruments for various scientific and technological missions. These include communications satellites like Starlink; space stations such as the ISS; scientific satellites like the Hubble; Earth observation satellites from companies like Planet Labs, Umbra, and HawkEye 360; GPS; miniature CubeSats for education and research; and military/defense satellites.

Not visible in the next 10 days
STARLINK-1416 details
Identifier
45692, 2020-035AM
Orbit
Decayed
Last TLE update3 months ago
Origin
Flag of USSpaceX/Seattle (US)
ManufacturerSpaceX/Seattle
MissionDecayed Commercial Communications
Bus & MotorSTARLINK, Unknown motor
Mass260 kg wet, ~248 kg dry
Launch date (UTC)
2020-06-04 (5 years ago)
Launch vehicle
FALCON 9
Launch site
Air Force Eastern Test Range (AFETR)
Object type
Payload
Rocket body
Debris
Shape & HBRBox + 1 Pan, 8.86 m
Radar Cross Section13.562 m², Large (>1 m²)

Expand to show TLE details & history

TLE from 3 months ago
0 STARLINK-1416
1 45692U 20035AM  24266.97909852  .49721084  12363-4  32775-2 0  9995
2 45692  53.0277 256.5784 0002116 219.3664 244.6748 16.40832200238611
Epoch: 2024-09-22T23:29Z
Definitive object data (Epoch: 2024-09-22T23:29:54.112Z)
Latitude50.97356°
Longitude14.35955°
Altitude170.16 km
Speed7.81 km/s
True Right ascension00h 36m 35s
True Declination50° 47' 24"
Sunlit
Object was in full shadow at TLE epoch
Visualization observer readout
Observer readout values are unavailable because the object's trajectory could not be propagated. This is usually caused when the trajectory data is faulty or the object's orbit has decayed.
Visualization observer readout
Observer readout values are unavailable because the object's trajectory could not be propagated. This is usually caused when the trajectory data is faulty or the object's orbit has decayed.
Orbital elements
Apogee altitude165.265 km
Perigee altitude162.496 km
Semi-major axis6,542.017 km
Eccentricity0.0002116
Inclination53.0277°
RAAN256.5784°
Arg. of periapsis219.3664°
True anomaly244.65289°
Mean anomaly244.6748°
Eccentric anomaly244.66384°
Mean motion4.10181 °/min
BSTAR0.0032775
Orbital period87.77 mins
Loading maneuver chart data...

STARLINK-1416 Visibility forecast

Observer location: undefined°, undefined

This satellite is decayed
Span
Click to sort rows by Start time (UTC) header in descending order
Start Az.
Max El. time (UTC)
Max El. Az.
Max El.
End time (UTC)
End Az.
|